Other Surface Observations
Issued by NWS

Home | Current Version | Previous Version | Text Only | Print | Product List | Glossary On
Versions: 1 2 3 4 5 6 7 8 9 10 11 12 13 14 15 16 17 18 19 20 21 22 23 24 25 26 27 28 29 30 31 32 33 34 35 36 37 38 39 40 41 42 43 44 45 46 47 48 49 50
796
SXUS52 KTAE 262318
OSOTAE
OSOTAE
North Florida/South Alabama/Southwest Georgia Weather Roundup
National Weather Service Tallahassee Florida
700 PM EDT FRI MAY 26 2017

Note: "fair" indicates few or no clouds below 12,000 feet with no
significant weather and/or obstructions to visibility.

!FLZ017-115-028-034-025-270000
...North Florida...

CITY           SKY/WX    TMP DP  RH WIND       PRES   REMARKS
TALLAHASSEE    MOSUNNY   83  61  47 S10       30.01F
APALACHICOLA   SUNNY     78  64  61 SW8       30.04S
PERRY          SUNNY     82  57  41 W7        30.03S
CROSS CITY     SUNNY     81  59  47 W10       30.03R
JACKSONVILLE   MOSUNNY   87  51  28 NW6       29.98S
$$

!FLZ112-006-005-002-011-270000
...Florida Panhandle...

CITY           SKY/WX    TMP DP  RH WIND       PRES   REMARKS
MARIANNA       SUNNY     87  62  43 SW12      29.99F
BONIFAY        NOT AVBL
PANAMA CITY NW FAIR      79  62  56 S9        30.02F
TYNDALL AFB    SUNNY     78  62  57 SW8       30.04S
TYND DRONE APT FAIR      76  63  63 SW6       30.04S
DE FUNIAK SPR  FAIR      80  60  49 SW3       30.04S
EGLIN AFB      MOSUNNY   78  61  54 S8        30.03F
DESTIN         SUNNY     81  64  56 SW6       30.03S
HURLBURT       SUNNY     78  60  52 SW8       30.02S
CRESTVIEW      SUNNY     82  57  42 VRB5      30.04S
PENSACOLA      SUNNY     80  62  54 S10       30.03S
$$

!ALZ063-066-270000
...South Alabama...

CITY           SKY/WX    TMP DP  RH WIND       PRES   REMARKS
DOTHAN         SUNNY     85  60  42 SW8       30.03F
OZARK CAIRNS   SUNNY     86  60  41 S9        30.00S
FT RUCKER HELI SUNNY     86  60  40 SW6       30.00S
RUCKER HELI 3  FAIR      86  60  41 SW6       30.00S
RUCKER HELI 2  FAIR      85  59  41 SW5       29.99F
FLORALA APT    SUNNY     82  58  43 SW10      30.04R
ANDALUSIA      SUNNY     87  61  41 SW9       30.00S
TROY           SUNNY     84  62  47 S7        30.01S
EUFALA         FAIR      86  61  42 SW6       29.98F
MOBILE         MOSUNNY   80  60  50 S8        30.03R
$$

!GAZ120>161-270000
...Southwest and South Central Georgia...

CITY           SKY/WX    TMP DP  RH WIND       PRES   REMARKS
THOMASVILLE    NOT AVBL
BAINBRIDGE     SUNNY     84  57  39 S3        30.01F
MOODY AFB      SUNNY     85  53  32 NW7       29.99F
VALDOSTA       SUNNY     83  57  41 VRB3      30.01S
MOULTRIE       SUNNY     86  52  30 W3        30.02F
BLAKELY        SUNNY     88  59  37 W6        30.00F
ALBANY         SUNNY     85  58  39 W7        30.01F
TIFTON         FAIR      83  56  39 W3        30.01F
FITZGERALD     FAIR      84  60  44 W3        30.03F
CORDELE        FAIR      88  57  34 W8        30.01S
AMERICUS       FAIR      82  54  36 SW3       30.01F
HOMERVILLE     FAIR     N/A N/A N/A W7        30.01F
$$

!GMZ750-755-770-775-270000
...Coastal and Buoy Obs...

STATION/POSITION TIME  TEMP    WIND        PRES    VSBY  WAVE
                       AIR SEA DIR/SP/G                  HT/PER
                 (UTC) (F)     (DEG/KT/KT) (MB)    (MI)  (FT/S)
KEATON BEACH     2300   77     260/  7/  9 1016.7F
CEDAR KEY        2300   77     290/  8/ 10 1017.3F
C TOWER          2300   75     220/  6/  8 1017.8F
APALACHICOLA BUO 2250   77 83  250/  2/  4 1017.4F         2/ 6
PANAMA CITY BUOY 2250   76 78  170/  4/  6 1017.2F         1/ 7
MOBILE BUOY      2300   77 79  150/  8/ 10 1016.5
ORANGE BCH AL BU 2250   76 78  190/ 10/ 12 1016.5F         2/ 4
$$




USA.gov is the U.S. government's official web portal to all federal, state and local government web resources and services.